Mackall AAF, NC

6:19 AM EDT on June 27, 2017 (GMT -0400)
Mackall Army Air Field

Weather History for KHFF - January, 2014

Change the Weather History Date:

Monday, January 13, 2014

  Actual Average Record
Temperature  
Mean Temperature 44 °F -  
Max Temperature 60 °F 53 °F 76 °F (2017)
Min Temperature 28 °F 31 °F 19 °F (2011)
Degree Days  
Heating Degree Days 21    
Moisture  
Dew Point 37 °F    
Average Humidity 67    
Maximum Humidity 100    
Minimum Humidity 37    
Precipitation  
Precipitation 0.00 in - - ()
Sea Level Pressure  
Sea Level Pressure 30.10 in    
Wind  
Wind Speed 5 mph (South)    
Max Wind Speed 14 mph    
Max Gust Speed 20 mph    
Visibility 10 miles    
Events Rain    
Averages and records for this station are not official NWS values.
T = Trace of Precipitation, MM = Missing Value Source: NWS Daily Summary

Daily Weather History Graph

Daily Weather History Graph

Search for Another Location

Airport or City:

Trip Planner

Search our weather history database for the weather conditions in past years. The results will help you decide how hot, cold, wet, or windy it might be!

Date:

Astronomy

Jan. 13, 2014 Rise Set
Actual Time 7:26 AM EST 5:27 PM EST
Civil Twilight 6:58 AM EST 5:55 PM EST
Nautical Twilight 6:27 AM EST 6:26 PM EST
Astronomical Twilight 5:56 AM EST 6:56 PM EST
Moon 3:40 PM EST (1/13) 5:14 AM EST (1/13)
Length of Visible Light 10h 56m
Length of Day
10h 01m
Waxing Gibbous, 95% of the Moon is Illuminated
Jan 13
Waxing Gibbous
Jan 15
Full
Jan 24
Last Quarter
Jan 30
New
Feb 6
First Quarter

Hourly Weather History & Observations

Time (EST) Temp. Dew Point Humidity Pressure Visibility Wind Dir Wind Speed Gust Speed Precip Events Conditions
6:55 AM 28.8 °F 28.8 °F 100% 30.21 in 10.0 mi East 1.2 mph - N/A   Clear
7:20 AM 28.4 °F 28.4 °F 100% 30.19 in 10.0 mi SE 2.3 mph - N/A   Clear
7:55 AM 28.6 °F 28.8 °F 100% 30.22 in 10.0 mi Variable 1.2 mph - N/A   Clear
8:55 AM 44.6 °F 41.0 °F 87% 30.18 in 10.0 mi Calm Calm - N/A   Partly Cloudy
9:55 AM 50.0 °F 39.2 °F 66% 30.19 in 10.0 mi SW 5.8 mph - N/A   Partly Cloudy
10:55 AM 55.0 °F 36.5 °F 50% 30.19 in 10.0 mi SSW 11.5 mph - N/A   Clear
11:55 AM 58.3 °F 35.8 °F 43% 30.14 in 10.0 mi South 11.5 mph 19.6 mph N/A   Clear
12:55 PM 59.4 °F 35.2 °F 40% 30.12 in 10.0 mi SSW 12.7 mph 19.6 mph N/A   Clear
1:55 PM 60.4 °F 35.1 °F 39% 30.10 in 10.0 mi SSW 13.8 mph 19.6 mph N/A   Clear
2:55 PM 59.9 °F 36.0 °F 41% 30.08 in 10.0 mi South 8.1 mph - N/A   Clear
3:55 PM 60.1 °F 33.8 °F 37% 30.07 in 10.0 mi South 6.9 mph - N/A   Clear
4:55 PM 56.8 °F 37.6 °F 49% 30.06 in 10.0 mi South 6.9 mph - N/A   Clear
5:55 PM 53.2 °F 39.6 °F 60% 30.05 in 10.0 mi South 4.6 mph - N/A   Mostly Cloudy
6:55 PM 50.7 °F 40.3 °F 67% 30.04 in 10.0 mi SE 3.5 mph - N/A   Mostly Cloudy
7:55 PM 48.0 °F 40.8 °F 76% 30.04 in 10.0 mi SE 2.3 mph - N/A   Mostly Cloudy
8:55 PM 46.6 °F 41.2 °F 81% 30.03 in 10.0 mi South 3.5 mph - N/A   Mostly Cloudy
9:55 PM 46.8 °F 41.9 °F 83% 30.02 in 10.0 mi Variable 1.2 mph - N/A   Mostly Cloudy
10:55 PM 52.0 °F 43.5 °F 73% 30.01 in 10.0 mi South 4.6 mph - N/A   Mostly Cloudy
11:55 PM 52.9 °F 45.9 °F 77% 29.98 in 10.0 mi SSW 6.9 mph - 0.00 in Rain Light Rain